Wetbulb
64.52 63.03 64.94 59.71 54.62 54.95 50.50 50.94 53.46 53.24 58.66 63.69 64.06 63.95 65.26 67.36 65.37 61.71 75.06 75.07 75.32 75.86 77.23 77.27 77.55 77.28 77.06 77.00 76.88 77.04 77.19 77.42 77.75 77.65 77.57 77.03 76.95 76.95 76.75 76.82 76.70 76.70 76.46 76.16 75.77 75.12 74.80 75.00 74.70
62.71 59.47 58.28 56.31 52.97 51.27 50.89 51.95 51.62 53.52 62.73 62.85 65.13 64.21 64.11 63.04 70.13 72.10 73.92 76.12 76.07 76.43 77.38 77.18 77.52 77.31 76.58 76.53 76.59 76.59 76.89 77.01 77.04 77.19 77.30 77.15 77.00 76.80 76.32 76.35 76.50 76.59 76.07 75.60 75.34 74.65 74.31 73.91 74.01
60.80 59.33 56.20 54.33 51.56 49.62 49.63 51.69 52.55 54.07 56.20 61.30 62.53 63.96 64.27 65.06 71.21 72.90 75.31 76.96 76.43 76.39 77.52 77.75 77.57 77.28 76.48 76.32 76.04 76.41 76.58 76.46 76.49 76.65 76.62 76.57 76.54 76.52 76.42 76.60 76.90 76.31 75.83 75.25 74.90 74.33 73.60 73.33 73.43
58.18 57.27 55.24 52.87 48.83 50.28 50.72 53.26 52.07 52.21 57.67 61.46 62.63 61.25 64.90 69.36 70.93 74.75 76.64 76.78 76.57 76.16 77.06 77.52 77.41 77.19 76.72 75.92 75.77 75.89 76.21 76.29 76.37 76.07 76.00 76.12 76.12 76.21 76.31 76.69 76.72 76.52 76.01 75.34 75.06 74.66 73.84 73.22 73.46
56.09 55.64 53.04 50.60 49.10 50.53 52.17 52.42 51.52 56.25 58.99 60.51 61.47 61.20 63.74 70.48 75.57 76.06 76.28 76.55 76.14 76.10 76.77 77.57 77.33 77.34 76.75 75.90 75.92 75.59 76.09 76.13 76.21 76.07 75.72 75.75 75.99 76.10 76.30 76.44 76.33 76.42 76.11 75.73 75.18 74.36 73.99 73.41 73.33
53.57 54.42 51.43 49.76 49.31 51.48 52.01 52.17 51.71 53.63 55.25 58.41 61.26 60.09 61.10 64.23 66.15 75.34 75.97 75.80 76.15 75.60 76.38 77.34 77.21 76.99 76.79 76.55 76.11 76.00 75.70 75.80 75.86 75.89 75.79 75.92 75.88 75.91 75.91 75.87 75.85 75.82 75.54 75.36 75.04 74.45 73.60 73.45 73.18
51.31 52.69 49.85 49.26 49.58 50.02 50.96 52.33 51.20 51.27 52.61 53.68 55.92 58.27 57.37 56.84 64.79 75.72 75.49 75.18 75.54 75.97 76.26 76.93 76.91 77.13 76.69 76.35 76.12 76.09 75.56 75.25 75.39 75.34 75.32 75.67 75.70 75.77 75.85 75.98 75.89 75.79 75.62 75.20 74.75 74.17 73.35 73.05 72.88
51.85 52.67 47.82 48.92 49.09 49.90 51.41 51.69 51.62 51.30 51.13 53.21 53.79 54.44 55.03 57.46 66.58 75.59 75.46 74.97 74.77 75.53 76.00 76.50 76.75 76.78 76.88 76.63 76.10 75.94 75.71 75.46 75.14 75.18 75.44 75.51 75.62 75.62 75.55 75.37 75.76 75.91 75.58 75.24 74.92 74.22 73.70 73.23 72.98
50.78 49.36 48.00 48.48 47.86 49.97 50.76 50.25 52.28 52.21 51.98 52.12 52.87 53.04 54.87 56.99 72.96 74.58 74.69 74.59 74.76 74.49 75.41 76.07 76.48 76.50 76.32 76.28 76.27 75.99 75.66 75.47 75.16 74.70 74.95 74.66 73.59 74.44 74.85 75.12 75.35 75.68 75.65 75.37 75.15 74.68 74.18 73.59 73.05
48.97 46.45 46.90 49.34 50.18 48.85 49.87 50.10 50.91 50.97 51.11 51.56 51.95 52.94 54.01 59.09 71.52 72.19 72.67 73.24 74.71 74.97 75.25 75.63 76.59 76.33 75.91 75.11 76.21 75.41 75.80 75.67 75.35 75.02 75.24 74.48 74.38 74.23 73.62 74.24 75.14 75.36 75.42 75.72 75.44 75.01 74.50 73.63 72.50
47.82 46.31 47.45 49.29 50.11 50.31 49.96 49.96 51.14 50.22 50.06 51.99 51.66 52.94 53.38 54.16 60.53 67.49 68.89 69.41 70.90 75.17 76.38 76.03 76.25 76.72 75.83 75.55 75.94 75.18 75.69 74.99 75.41 74.78 74.32 74.63 74.14 73.95 73.33 73.60 73.59 74.25 74.58 74.29 74.50 74.64 74.39 73.78 73.24
46.64 47.92 48.59 49.37 49.76 49.91 49.25 50.60 49.80 50.47 51.86 52.29 52.01 52.42 52.78 54.03 54.16 55.95 62.38 65.31 63.22 62.48 69.26 76.31 76.69 76.47 76.13 76.27 75.75 75.68 75.27 75.30 74.78 74.49 74.26 74.01 72.99 72.52 72.46 72.98 73.22 73.50 73.05 73.38 73.59 73.23 73.67 73.95 73.63
47.03 47.51 48.49 48.82 49.08 49.35 49.22 49.51 49.77 50.01 51.40 52.29 52.66 53.37 53.19 54.06 55.14 55.75 57.45 58.35 58.18 62.14 71.75 74.77 76.55 75.12 74.89 75.90 75.87 75.21 74.77 74.49 74.60 74.06 74.35 73.36 72.80 72.05 72.76 72.43 73.31 73.37 73.09 72.92 72.87 72.74 72.67 72.00 72.26
47.83 47.74 48.29 47.90 48.08 48.53 47.82 48.55 48.54 49.60 51.64 52.03 52.94 53.26 53.97 53.46 53.89 54.51 55.55 56.72 58.53 59.79 65.03 75.02 75.81 76.17 76.18 74.99 75.84 74.54 74.94 75.00 74.82 74.69 74.71 74.38 74.27 73.93 73.77 72.71 72.53 72.31 72.68 72.75 72.75 72.83 72.39 72.14 71.87
48.02 46.55 47.45 47.50 48.13 47.47 48.21 46.35 46.84 49.66 52.59 52.36 53.19 54.03 54.31 54.25 54.51 55.91 56.53 57.38 58.23 60.11 67.33 74.76 75.72 76.38 76.36 75.97 74.87 73.72 74.62 74.86 74.61 74.69 75.45 75.09 75.07 74.76 73.60 73.56 73.82 74.14 74.25 74.45 73.67 72.11 72.83 71.30 70.75
45.80 45.61 44.02 46.53 49.11 47.87 47.21 44.46 47.62 50.23 50.72 51.49 52.51 52.89 53.59 55.36 55.61 56.91 57.37 58.05 58.86 59.88 61.65 73.62 74.13 75.42 75.66 75.56 75.14 74.91 74.80 74.90 74.88 75.57 75.66 74.57 74.86 74.89 73.79 73.06 72.51 73.53 73.61 73.38 73.32 72.82 71.25 70.44 71.49
44.20 42.70 42.21 43.43 47.60 47.86 47.65 45.76 49.11 51.36 51.04 51.73 52.62 53.08 52.80 53.28 55.42 57.86 60.02 59.95 58.79 59.42 60.70 67.65 73.99 74.12 74.08 74.02 74.25 74.20 74.25 73.80 73.98 74.42 73.86 72.59 72.70 72.89 72.84 71.87 71.61 72.93 71.57 71.41 71.60 72.02 72.12 70.71 70.58
41.48 41.60 41.76 42.34 46.32 47.33 45.77 46.29 48.68 50.25 50.99 51.53 52.36 52.95 52.49 52.42 55.60 58.60 59.71 57.38 57.28 58.78 61.88 65.87 68.71 71.13 72.16 71.98 70.56 71.04 69.84 67.01 67.52 67.85 68.87 69.78 70.59 69.68 70.71 69.52 70.43 70.77 69.60 69.33 69.86 70.30 70.69 71.39 71.24
43.31 42.41 41.82 43.80 46.20 45.98 45.04 45.22 47.14 49.55 51.42 51.46 51.78 51.51 51.83 55.18 57.17 59.11 60.19 60.51 60.48 61.73 62.95 64.88 66.05 66.76 67.69 66.37 64.30 64.22 63.65 65.40 65.90 66.88 67.71 67.56 67.86 67.88 68.86 67.58 68.01 68.87 68.79 69.25 70.14 69.54 69.63 68.84 70.77
44.02 42.85 42.81 44.20 45.58 45.42 44.86 44.47 46.63 49.51 49.89 50.48 51.03 53.30 54.38 55.64 56.81 58.42 60.15 61.21 61.57 62.36 63.25 63.65 64.11 65.16 65.21 65.18 65.35 65.52 65.36 65.06 65.29 65.69 66.34 66.10 65.95 66.45 66.17 66.53 65.96 67.50 66.45 68.74 69.14 68.23 66.62 66.83 70.27
43.88 42.54 42.00 41.75 44.32 44.35 44.06 42.52 45.09 49.06 50.50 51.38 51.91 52.88 54.01 55.53 56.55 58.54 59.61 60.78 61.60 61.78 62.51 62.23 62.21 62.94 64.00 65.08 64.65 64.30 64.22 63.78 63.50 64.00 64.90 64.70 64.36 64.27 65.01 65.70 65.58 67.02 67.89 65.54 68.40 68.50 66.99 64.81 67.91
41.94 44.63 43.70 42.98 42.52 39.09 43.50 36.43 42.76 47.14 48.16 49.71 50.67 52.06 53.15 54.71 56.67 57.83 59.23 59.64 59.92 59.74 59.97 59.80 60.26 60.53 61.19 63.44 62.85 62.94 60.95 60.19 61.37 61.29 61.68 62.01 62.52 62.26 63.03 64.17 64.71 65.15 65.25 65.99 67.04 68.61 69.07 66.40 63.99
42.92 45.36 43.60 42.75 42.02 40.22 39.77 38.02 42.33 44.32 46.24 48.52 50.28 51.20 52.45 54.14 56.13 56.38 58.04 57.37 57.35 58.48 58.24 58.58 59.08 59.26 59.54 59.96 60.47 58.92 58.78 59.35 59.19 58.77 59.52 60.57 60.78 60.62 60.14 61.36 62.32 63.20 63.07 65.06 66.16 67.42 68.83 68.85 67.53
45.45 44.24 41.15 41.40 40.94 36.03 37.76 38.67 40.43 43.58 46.56 49.10 50.85 51.49 51.96 52.92 53.87 54.70 55.14 55.90 55.67 56.46 56.99 57.87 58.49 58.04 58.34 58.55 58.39 58.51 57.44 57.15 56.87 57.29 56.73 56.92 57.47 58.25 59.33 59.68 60.29 61.04 62.61 63.43 64.55 66.57 67.20 67.75 67.54
45.58 42.58 36.13 34.34 35.28 34.91 39.13 38.22 41.51 46.02 47.57 50.60 50.99 51.79 52.28 52.76 53.39 53.85 53.91 54.10 54.84 54.96 55.51 56.66 57.32 56.97 57.42 57.25 56.67 55.67 55.79 55.65 55.69 55.63 54.80 55.26 54.92 55.52 57.63 58.02 58.51 59.15 61.04 62.18 63.94 65.15 65.52 66.19 66.72
42.02 41.64 36.28 28.52 31.24 34.25 39.02 36.31 42.19 47.23 49.25 50.68 52.37 53.08 52.84 52.51 52.83 52.96 53.38 53.71 53.74 54.39 53.82 54.38 54.72 55.05 55.07 54.92 54.81 55.92 54.71 54.65 54.28 54.61 54.24 54.01 54.25 54.93 56.81 56.83 57.79 58.64 59.35 60.36 63.29 64.28 63.67 65.01 65.73
41.43 40.07 41.78 38.14 36.58 34.76 38.10 40.96 45.32 48.08 49.09 49.79 50.41 51.22 51.77 52.70 52.85 53.84 53.98 53.49 53.04 53.02 52.82 54.15 54.50 54.23 54.21 54.32 54.87 54.47 54.40 54.31 53.72 54.48 54.46 53.73 54.62 54.51 55.31 56.13 56.50 57.30 57.99 59.14 61.42 62.49 63.30 64.17 65.97
43.38 44.23 37.77 39.72 30.59 28.95 35.10 36.49 38.09 43.29 46.00 49.64 50.34 50.75 52.02 52.18 51.54 52.91 53.83 53.15 53.13 52.95 53.44 53.89 54.55 54.07 54.00 54.43 54.39 53.76 54.02 54.30 53.99 53.67 53.04 53.23 53.51 54.20 54.61 55.00 56.02 56.59 57.30 58.89 61.01 62.19 63.68 64.13 64.65
41.72 40.40 39.51 39.14 37.69 31.66 30.17 35.18 44.81 44.36 45.93 46.45 48.46 50.80 51.04 51.75 51.00 51.65 53.04 53.00 52.78 52.71 52.60 53.17 53.68 53.51 53.45 53.82 53.87 53.61 53.74 53.66 53.22 52.46 52.39 52.45 52.80 53.12 53.74 54.50 55.35 55.77 56.72 58.84 61.64 63.12 63.98 63.79 63.14
42.83 40.67 40.57 35.98 32.81 35.29 34.84 34.54 46.46 46.71 46.76 46.80 46.75 47.93 48.95 49.43 50.27 51.05 50.82 51.82 51.97 52.09 52.49 52.80 53.17 52.84 53.12 53.24 52.94 53.03 53.47 52.82 52.06 51.86 51.84 52.35 51.64 52.86 53.59 54.75 54.93 55.79 56.96 59.58 62.18 61.08 61.52 59.61 59.07
MSLP
1010.93 1010.95 1010.70 1010.03 1009.36 1007.69 1006.98 1006.74 1006.61 1005.77 1005.67 1006.00 1005.86 1005.80 1006.07 1006.27 1006.19 1007.01 1007.69 1008.06 1008.40 1008.88 1009.54 1010.20 1010.82 1011.03 1011.16 1011.23 1011.52 1011.79 1012.05 1012.29 1012.59 1012.82 1012.95 1013.13 1013.48 1013.76 1014.02 1014.28 1014.49 1014.75 1014.91 1015.06 1015.22 1015.33 1015.34 1015.40 1015.47
1010.77 1010.83 1010.28 1009.15 1008.18 1007.00 1006.79 1006.80 1006.29 1006.25 1006.09 1006.11 1005.87 1005.84 1005.98 1006.41 1006.65 1006.98 1007.38 1008.10 1008.57 1009.07 1009.58 1010.01 1010.85 1011.13 1011.29 1011.45 1011.74 1011.97 1012.27 1012.50 1012.73 1012.99 1013.20 1013.38 1013.69 1014.04 1014.24 1014.53 1014.78 1014.92 1015.08 1015.21 1015.32 1015.40 1015.48 1015.61 1015.71
1010.58 1010.30 1009.40 1008.61 1008.27 1007.32 1006.82 1006.82 1006.65 1006.41 1006.42 1005.98 1005.86 1006.21 1006.40 1006.84 1006.98 1007.07 1007.62 1008.18 1008.65 1009.27 1009.73 1010.21 1010.83 1011.11 1011.38 1011.68 1011.90 1012.08 1012.28 1012.63 1012.90 1013.20 1013.47 1013.74 1013.95 1014.21 1014.48 1014.73 1015.01 1015.16 1015.28 1015.39 1015.45 1015.59 1015.67 1015.76 1015.88
1010.15 1009.64 1009.52 1008.52 1007.91 1007.94 1007.47 1007.00 1007.24 1006.66 1006.51 1006.33 1006.18 1006.39 1006.91 1007.46 1007.43 1007.48 1007.94 1008.47 1008.87 1009.31 1009.71 1010.45 1010.91 1011.20 1011.53 1011.86 1012.03 1012.25 1012.39 1012.66 1012.96 1013.37 1013.68 1013.91 1014.17 1014.35 1014.59 1014.87 1015.12 1015.24 1015.36 1015.50 1015.58 1015.69 1015.79 1015.86 1015.92
1010.18 1009.45 1008.67 1008.25 1008.07 1008.07 1007.77 1007.42 1007.27 1006.73 1006.62 1006.51 1006.51 1006.62 1006.96 1007.54 1008.02 1008.23 1008.42 1008.72 1008.94 1009.50 1009.94 1010.44 1011.01 1011.40 1011.80 1012.10 1012.29 1012.53 1012.62 1012.82 1013.12 1013.45 1013.83 1014.12 1014.40 1014.67 1014.77 1014.95 1015.13 1015.29 1015.38 1015.53 1015.68 1015.84 1015.95 1015.99 1016.10
1009.79 1009.56 1008.68 1008.17 1008.09 1007.94 1007.86 1007.80 1007.40 1006.92 1006.89 1006.84 1006.73 1006.86 1007.29 1007.82 1008.00 1008.40 1008.69 1008.93 1009.26 1009.69 1010.07 1010.55 1011.25 1011.62 1011.93 1012.20 1012.45 1012.73 1012.92 1013.06 1013.25 1013.54 1013.88 1014.18 1014.47 1014.70 1014.89 1015.04 1015.23 1015.31 1015.45 1015.54 1015.66 1015.82 1015.97 1016.13 1016.22
1009.78 1009.36 1008.97 1008.74 1008.39 1007.92 1007.85 1007.97 1007.56 1007.34 1007.08 1007.08 1007.30 1007.06 1007.64 1007.92 1008.40 1008.57 1008.91 1009.23 1009.57 1009.78 1010.18 1010.61 1011.08 1011.64 1012.12 1012.39 1012.71 1012.94 1013.13 1013.30 1013.50 1013.73 1013.95 1014.19 1014.43 1014.63 1014.76 1014.90 1015.13 1015.27 1015.35 1015.47 1015.58 1015.69 1015.87 1015.98 1016.09
1010.41 1009.88 1009.65 1009.22 1008.65 1008.10 1008.11 1008.06 1008.17 1007.74 1007.41 1007.46 1007.45 1007.41 1007.73 1008.18 1008.74 1008.79 1008.96 1009.30 1009.61 1009.97 1010.27 1010.66 1010.97 1011.38 1011.84 1012.10 1012.71 1012.99 1013.29 1013.51 1013.75 1014.00 1014.19 1014.40 1014.60 1014.80 1014.93 1015.04 1015.11 1015.18 1015.25 1015.34 1015.40 1015.53 1015.67 1015.76 1015.87
1010.69 1010.21 1009.91 1009.39 1008.91 1008.30 1008.48 1008.08 1008.14 1008.20 1007.72 1007.69 1007.74 1007.89 1008.20 1008.50 1008.80 1008.82 1008.93 1009.21 1009.46 1009.86 1010.21 1010.55 1011.09 1011.28 1011.58 1011.89 1012.40 1012.90 1013.20 1013.59 1013.83 1014.07 1014.40 1014.59 1014.38 1014.54 1014.68 1014.74 1015.08 1015.16 1015.13 1015.17 1015.32 1015.35 1015.45 1015.54 1015.55
1010.12 1010.88 1010.06 1009.66 1009.17 1008.73 1008.61 1008.56 1008.29 1008.09 1007.86 1007.75 1007.92 1008.20 1008.40 1008.58 1008.64 1008.49 1008.53 1008.62 1008.98 1009.38 1009.98 1010.30 1010.76 1011.11 1011.55 1011.83 1012.09 1012.60 1012.68 1012.88 1013.23 1013.60 1013.97 1014.13 1014.26 1014.45 1014.55 1014.63 1014.93 1015.03 1015.09 1015.13 1015.19 1015.26 1015.30 1015.32 1014.67
1010.92 1010.71 1010.59 1009.98 1009.61 1009.25 1008.88 1008.64 1008.45 1008.09 1007.76 1007.83 1007.92 1007.99 1008.40 1008.56 1008.56 1008.42 1008.40 1008.39 1008.58 1009.10 1009.55 1010.06 1010.49 1010.73 1011.22 1011.59 1012.22 1012.53 1012.60 1012.96 1013.14 1013.51 1013.90 1014.12 1014.22 1014.43 1014.51 1014.43 1014.55 1014.61 1014.70 1014.59 1014.54 1014.60 1014.58 1014.44 1014.49
1010.97 1010.91 1010.81 1010.18 1009.82 1009.48 1008.89 1008.70 1008.46 1008.27 1007.84 1008.20 1008.51 1008.64 1008.55 1008.62 1008.57 1008.43 1008.38 1008.40 1008.71 1009.02 1009.29 1009.74 1010.28 1010.72 1011.06 1011.41 1011.71 1011.91 1012.42 1012.70 1012.92 1013.22 1013.57 1013.83 1014.13 1014.47 1014.61 1014.34 1014.28 1014.50 1014.43 1014.19 1014.22 1014.15 1014.40 1014.42 1014.39
1010.72 1010.47 1010.52 1010.30 1010.15 1009.68 1009.47 1008.94 1008.67 1008.39 1008.61 1008.69 1008.64 1008.79 1008.74 1008.67 1008.68 1008.54 1008.44 1008.62 1008.91 1009.00 1009.16 1009.63 1010.22 1010.75 1011.13 1011.41 1011.64 1011.90 1012.19 1012.50 1012.91 1013.31 1013.50 1013.84 1014.05 1014.35 1014.37 1014.56 1014.39 1014.14 1014.12 1013.86 1013.70 1013.73 1013.75 1014.05 1014.11
1010.75 1010.63 1010.36 1010.47 1010.39 1009.85 1009.61 1009.30 1009.33 1009.14 1009.20 1009.02 1008.85 1008.68 1008.57 1008.52 1008.60 1008.87 1008.91 1008.96 1009.17 1009.24 1009.23 1009.43 1009.84 1010.42 1010.85 1011.26 1011.58 1011.90 1012.17 1012.43 1012.91 1013.07 1013.42 1013.57 1013.73 1013.92 1014.12 1014.49 1014.34 1014.39 1014.29 1013.89 1013.75 1013.34 1013.42 1013.33 1013.30
1010.92 1010.52 1010.42 1010.62 1010.31 1010.06 1010.12 1009.54 1009.16 1009.56 1009.53 1009.37 1009.17 1008.84 1008.77 1008.68 1008.80 1008.72 1008.91 1009.11 1009.12 1009.08 1009.35 1009.66 1009.94 1010.39 1010.84 1011.19 1011.63 1012.05 1012.08 1012.29 1012.69 1012.91 1013.26 1013.46 1013.63 1013.74 1014.09 1014.08 1013.77 1013.54 1013.68 1013.54 1013.35 1013.45 1013.13 1013.10 1013.07
1010.93 1011.11 1010.46 1010.58 1010.27 1010.49 1010.44 1009.17 1009.37 1009.86 1009.64 1009.10 1009.02 1008.94 1008.92 1008.78 1008.92 1009.10 1009.18 1009.30 1009.26 1009.13 1009.26 1009.46 1009.73 1010.14 1010.71 1011.05 1011.47 1011.80 1012.16 1012.52 1012.74 1012.81 1013.06 1013.22 1013.38 1013.56 1013.83 1013.77 1013.41 1013.21 1013.39 1013.17 1013.07 1012.89 1012.71 1012.72 1012.35
1011.22 1010.54 1010.57 1010.74 1010.98 1010.75 1010.35 1009.42 1009.55 1009.85 1009.68 1009.17 1009.13 1009.11 1009.28 1009.27 1009.11 1009.40 1009.41 1009.27 1009.27 1009.27 1009.45 1009.81 1009.95 1010.33 1010.78 1011.18 1011.35 1011.69 1012.02 1012.35 1012.58 1012.69 1012.78 1012.96 1013.17 1013.21 1013.37 1013.53 1013.21 1013.16 1013.05 1012.98 1012.74 1012.41 1012.26 1011.92 1011.77
1010.83 1010.85 1011.01 1010.95 1011.16 1010.96 1010.50 1009.98 1009.85 1010.37 1010.33 1010.00 1009.71 1009.40 1009.51 1009.56 1009.70 1009.86 1009.63 1009.40 1009.29 1009.50 1009.83 1010.18 1010.38 1010.73 1011.00 1011.31 1011.69 1011.96 1012.14 1012.32 1012.37 1012.53 1012.69 1012.84 1012.93 1013.01 1013.11 1013.02 1012.97 1012.80 1012.71 1012.46 1012.23 1012.07 1011.71 1011.54 1011.17
1011.19 1011.15 1011.24 1011.54 1011.67 1011.38 1010.69 1010.45 1010.41 1010.59 1010.45 1010.26 1010.13 1009.85 1009.83 1010.00 1010.34 1010.27 1010.16 1009.86 1009.68 1010.02 1010.30 1010.55 1010.77 1011.30 1011.40 1011.59 1011.82 1012.06 1012.25 1012.60 1012.68 1012.79 1013.04 1013.21 1013.28 1013.19 1013.12 1013.07 1012.91 1012.69 1012.44 1012.15 1012.01 1011.70 1011.46 1011.04 1010.88
1011.43 1011.46 1011.60 1011.97 1012.08 1011.86 1011.05 1010.32 1010.47 1010.68 1010.78 1010.89 1010.78 1010.44 1010.45 1010.50 1010.65 1010.80 1010.62 1010.33 1010.41 1010.70 1010.94 1011.23 1011.51 1011.78 1011.86 1011.86 1012.31 1012.41 1012.70 1013.13 1013.29 1013.44 1013.62 1013.77 1013.80 1013.54 1013.10 1013.02 1012.75 1012.47 1012.06 1011.86 1011.66 1011.55 1011.19 1010.76 1010.45
1011.94 1012.00 1012.26 1012.49 1012.41 1012.20 1011.59 1010.40 1010.49 1010.78 1011.04 1011.20 1011.21 1011.07 1011.00 1010.93 1010.99 1011.15 1011.14 1011.12 1011.26 1011.31 1011.61 1011.82 1012.10 1012.26 1012.31 1012.38 1012.55 1012.85 1013.21 1013.53 1013.63 1013.76 1013.84 1013.89 1013.79 1013.44 1013.10 1012.81 1012.68 1012.36 1011.98 1011.35 1011.27 1011.09 1010.88 1010.50 1009.89
1012.20 1012.60 1012.69 1012.64 1012.53 1012.09 1012.25 1010.76 1010.46 1010.63 1010.88 1011.19 1011.33 1011.31 1011.36 1011.40 1011.52 1011.51 1011.54 1011.66 1011.77 1012.04 1012.19 1012.35 1012.58 1012.74 1012.93 1012.90 1012.99 1013.21 1013.40 1013.44 1013.88 1013.95 1013.82 1013.69 1013.46 1013.04 1012.78 1012.49 1012.18 1011.96 1011.66 1011.27 1010.82 1010.49 1010.11 1010.16 1009.53
1012.75 1012.96 1013.21 1013.15 1012.85 1012.87 1012.40 1011.91 1010.25 1010.87 1010.65 1010.91 1011.27 1011.47 1011.59 1011.67 1011.59 1011.62 1011.76 1012.05 1012.32 1012.47 1012.55 1012.75 1012.99 1013.23 1013.49 1013.61 1013.68 1013.61 1013.83 1014.00 1014.07 1013.90 1013.76 1013.45 1013.05 1012.89 1012.68 1012.38 1012.05 1011.65 1011.22 1010.78 1010.41 1010.08 1009.63 1009.23 1008.96
1013.37 1013.45 1013.70 1013.80 1013.43 1012.74 1012.58 1012.21 1010.10 1010.15 1010.07 1010.49 1010.94 1011.31 1011.56 1011.69 1011.90 1011.95 1012.21 1012.38 1012.55 1012.75 1012.88 1013.03 1013.20 1013.53 1013.77 1013.85 1014.11 1014.16 1014.13 1014.19 1014.11 1014.03 1013.83 1013.42 1013.27 1012.93 1012.58 1012.15 1011.85 1011.44 1010.87 1010.37 1009.83 1009.65 1009.30 1008.79 1008.37
1013.50 1013.53 1013.26 1013.27 1013.09 1012.74 1013.04 1012.43 1010.31 1010.07 1010.19 1010.09 1010.47 1011.09 1011.55 1011.86 1012.01 1012.09 1012.15 1012.27 1012.53 1012.67 1012.90 1013.05 1013.21 1013.52 1013.74 1013.93 1014.19 1014.43 1014.46 1014.46 1014.32 1014.19 1013.87 1013.82 1013.23 1012.80 1012.45 1012.23 1011.64 1011.01 1010.47 1010.07 1009.57 1008.99 1008.72 1008.23 1007.86
1014.16 1014.32 1014.17 1013.84 1013.46 1013.03 1013.31 1011.51 1010.01 1010.40 1010.44 1010.51 1010.76 1011.14 1011.62 1011.92 1012.13 1012.31 1012.46 1012.65 1012.71 1012.88 1013.10 1013.28 1013.37 1013.58 1013.90 1014.09 1014.27 1014.45 1014.54 1014.27 1014.18 1014.13 1014.06 1013.65 1013.18 1012.76 1012.50 1012.07 1011.49 1010.87 1010.24 1009.60 1009.12 1008.32 1007.80 1007.44 1007.09
1014.68 1014.89 1015.40 1014.89 1015.19 1014.32 1012.49 1011.49 1010.75 1010.49 1010.44 1010.83 1010.98 1011.32 1011.61 1011.87 1012.03 1012.19 1012.43 1012.71 1012.87 1012.97 1013.17 1013.37 1013.53 1013.67 1013.85 1014.11 1014.23 1014.24 1014.24 1014.33 1014.09 1014.02 1013.83 1013.19 1012.90 1012.29 1011.86 1011.59 1011.07 1010.50 1009.87 1009.21 1008.72 1007.75 1007.18 1006.75 1006.37
1015.17 1015.74 1015.87 1015.86 1015.36 1013.97 1012.43 1011.77 1010.59 1010.78 1010.86 1011.24 1011.45 1011.65 1011.77 1011.84 1012.06 1012.18 1012.32 1012.68 1012.99 1013.21 1013.24 1013.41 1013.51 1013.59 1013.48 1013.65 1013.75 1013.73 1013.72 1013.79 1013.65 1013.46 1013.14 1012.77 1012.26 1011.84 1011.47 1011.06 1010.48 1009.88 1009.29 1008.65 1008.19 1007.31 1006.49 1006.11 1005.68
1015.74 1015.83 1016.51 1016.79 1016.44 1015.16 1013.47 1011.34 1011.47 1011.46 1011.78 1012.11 1012.32 1012.46 1012.74 1012.60 1012.29 1012.19 1012.15 1012.56 1012.83 1012.82 1012.80 1012.97 1013.14 1013.18 1013.05 1013.07 1013.27 1013.20 1013.14 1013.15 1013.07 1012.87 1012.59 1012.21 1011.82 1011.52 1011.04 1010.56 1010.02 1009.33 1008.74 1007.99 1007.58 1006.89 1006.20 1005.70 1005.55
1016.42 1016.36 1016.66 1016.95 1016.78 1016.60 1015.64 1011.25 1011.74 1011.78 1012.34 1012.90 1013.02 1013.13 1013.17 1013.16 1012.78 1012.31 1012.36 1012.41 1012.79 1012.50 1012.36 1012.46 1012.57 1012.62 1012.35 1012.55 1012.63 1012.57 1012.62 1012.61 1012.55 1012.41 1012.13 1011.73 1011.36 1011.04 1010.64 1010.15 1009.53 1008.81 1008.06 1007.43 1006.89 1006.46 1006.15 1005.99 1005.83
Wind_Speed
3 5 3 3 2 0 3 4 3 11 2 3 1 3 6 6 5 5 3 9 10 16 14 16 13 14 13 12 13 14 13 13 12 13 13 14 14 13 13 12 11 10 10 8 7 7 7 7 7
3 4 2 0 2 2 3 3 10 8 3 1 4 4 6 6 3 2 2 11 11 15 14 14 14 13 14 14 13 13 13 13 13 13 13 14 13 12 13 11 10 10 9 7 7 6 6 6 7
4 1 3 2 2 2 4 3 11 7 3 4 3 4 3 4 3 2 3 11 13 14 12 13 13 13 14 14 14 13 13 13 12 12 12 12 12 11 11 10 9 8 7 6 6 6 5 5 6
1 2 3 1 4 2 4 9 6 4 2 2 3 7 2 3 5 5 9 10 12 14 13 13 12 12 12 13 14 13 13 13 12 12 11 11 11 11 10 9 7 8 7 6 5 5 5 5 6
2 0 1 2 2 0 3 8 7 2 2 3 1 5 4 4 5 5 8 9 12 12 10 12 10 10 11 12 13 13 13 12 12 12 11 11 10 9 9 8 8 7 6 5 4 3 3 3 5
1 2 1 1 1 1 2 6 4 6 3 3 5 3 3 3 6 4 5 7 9 11 10 10 10 9 9 10 11 11 11 11 12 12 11 11 10 9 9 8 7 6 5 4 4 3 3 2 3
0 0 2 2 1 2 3 6 5 5 5 6 2 3 3 3 7 4 6 7 8 9 9 9 9 9 8 8 8 9 10 10 10 10 10 10 10 9 9 8 7 6 5 5 4 3 3 3 4
2 2 3 2 3 2 3 2 1 5 6 3 3 3 2 3 3 5 6 6 7 8 8 8 8 9 8 9 9 9 9 8 7 8 8 8 8 7 7 6 7 7 6 6 6 5 4 5 5
4 1 4 4 6 3 1 3 2 2 1 3 3 2 2 4 5 6 7 6 6 6 8 8 8 8 8 8 8 9 10 8 7 6 5 6 6 7 8 5 4 7 7 7 7 7 7 7 8
3 4 7 3 3 2 2 2 2 2 3 1 1 2 2 1 5 7 7 6 7 8 9 9 10 10 8 6 8 8 8 7 7 7 6 6 5 5 5 5 7 8 8 8 7 7 8 8 7
4 3 4 3 4 3 3 4 3 2 5 5 3 5 1 1 2 5 5 5 6 7 8 10 11 11 10 8 6 5 4 5 6 7 6 5 4 3 4 4 5 6 8 8 7 8 7 8 7
4 4 5 2 4 4 4 2 4 6 4 3 1 4 5 4 4 6 6 7 5 6 6 10 11 10 10 7 7 8 6 6 5 7 8 6 4 4 4 4 5 5 5 8 8 6 7 10 11
3 1 2 1 6 8 3 7 4 7 5 7 6 3 4 8 8 7 8 6 5 6 5 7 9 9 8 9 6 6 7 6 5 6 6 5 5 4 4 4 6 6 6 7 7 8 8 8 11
0 4 6 1 2 3 4 4 3 4 7 5 6 7 6 5 3 4 5 5 6 6 7 8 11 12 12 9 9 6 6 5 6 5 5 8 6 6 5 6 7 6 7 6 7 8 8 9 9
1 4 1 5 5 2 4 5 6 3 8 5 6 5 6 4 4 6 5 6 7 6 3 6 8 9 10 10 9 6 5 4 4 4 5 6 5 5 6 6 7 7 7 10 9 8 9 9 9
1 1 5 3 7 2 5 2 3 6 9 10 7 6 7 8 8 7 6 6 8 7 6 6 6 10 10 8 7 5 4 4 3 2 2 4 5 5 6 6 7 7 7 7 8 9 8 8 10
2 2 2 2 4 5 3 4 3 11 9 11 10 9 7 10 9 9 10 8 6 5 4 4 5 8 8 8 7 6 6 4 4 4 3 3 3 3 4 5 7 7 7 8 9 10 10 9 9
5 3 2 2 3 5 4 8 10 7 7 8 10 10 7 5 6 9 8 5 4 4 5 6 6 7 8 6 6 5 5 6 5 5 4 4 2 2 2 4 7 8 8 9 10 12 12 11 11
3 2 1 2 1 10 5 10 10 5 5 7 8 7 4 6 6 8 7 6 10 10 9 9 10 8 6 5 5 5 5 4 4 4 4 4 2 1 2 3 5 7 8 10 12 12 12 11 11
2 2 3 2 3 6 8 16 5 4 4 6 4 7 8 9 10 11 12 14 14 14 13 13 12 10 8 5 4 4 4 4 4 3 3 4 5 4 4 5 6 7 7 10 11 11 9 10 11
1 1 1 4 5 2 9 5 1 3 4 4 5 5 6 8 9 10 12 13 13 14 13 13 12 11 11 9 6 6 4 3 2 1 1 3 6 6 5 7 7 8 8 9 9 8 9 10 11
2 2 1 6 8 7 4 6 4 4 3 3 4 5 6 6 8 9 10 11 11 11 11 12 11 11 10 8 8 9 5 3 3 4 4 6 6 8 9 10 9 9 8 10 10 11 10 7 11
2 2 3 4 5 4 2 6 2 2 8 6 5 5 6 5 7 9 9 9 9 8 9 9 10 10 9 8 7 4 3 1 3 4 7 8 8 10 11 11 11 11 9 10 11 12 12 8 9
2 2 2 2 1 5 2 4 3 5 9 10 8 7 6 6 6 6 6 6 6 6 6 6 8 8 7 6 6 5 3 2 3 5 6 7 8 9 11 13 12 12 11 12 10 11 12 12 11
3 4 4 3 3 2 2 5 9 6 6 11 12 9 8 5 6 5 4 4 3 3 4 4 5 6 6 5 4 3 2 3 4 6 6 9 8 9 10 13 13 12 13 14 13 11 11 12 12
3 3 2 5 4 7 3 8 1 2 6 6 7 10 8 6 5 5 4 4 3 1 1 1 2 3 3 2 1 2 3 3 4 5 7 8 8 10 12 13 14 15 15 15 14 11 10 11 11
2 3 4 5 1 5 5 4 10 4 5 2 6 9 8 5 4 7 7 6 5 4 4 5 4 3 3 4 4 4 4 5 6 8 8 8 11 11 13 14 15 15 16 16 16 12 12 12 12
3 4 3 1 5 7 6 8 9 5 8 5 8 9 9 8 6 7 8 7 6 5 5 5 5 5 4 5 5 6 6 7 8 9 11 13 13 14 14 14 15 15 16 15 15 13 12 13 11
2 3 2 3 4 5 8 7 2 7 8 11 13 9 10 12 16 14 10 9 7 6 6 5 5 6 6 7 8 8 8 9 10 11 12 14 14 14 14 14 15 15 15 15 14 13 14 13 13
6 5 5 4 4 3 4 13 8 14 5 15 19 20 21 20 21 18 10 8 8 8 7 7 7 7 7 9 11 11 9 10 11 12 14 14 14 14 14 14 14 14 14 14 13 11 11 11 9
Wind_Direction
327 167 151 216 244 212 72 53 289 344 8 347 107 14 59 25 12 46 78 162 144 149 153 157 156 154 149 136 129 125 126 128 131 135 136 139 143 146 148 152 155 161 160 154 149 142 141 140 141
160 138 186 315 329 115 69 310 344 338 106 76 87 64 51 53 34 88 145 157 151 150 154 158 156 151 146 143 140 135 133 133 135 138 138 141 144 150 153 156 160 163 162 160 157 153 149 149 158
158 246 289 47 69 65 334 333 321 310 321 354 101 44 47 27 13 18 84 148 151 154 157 155 155 150 148 148 146 142 139 137 138 138 139 143 145 149 152 155 161 166 166 166 164 157 151 160 167
242 177 125 1 56 85 304 328 334 289 102 13 94 87 86 22 336 0 135 140 154 156 161 149 152 148 149 151 150 148 145 144 141 143 145 147 149 149 152 155 161 174 175 171 172 160 160 174 178
41 243 49 82 67 304 294 318 336 76 71 70 322 117 86 52 49 90 135 146 150 154 160 157 147 146 151 155 154 156 152 146 146 148 151 150 148 150 152 157 166 179 183 182 173 166 172 188 202
345 295 165 151 96 320 306 337 324 46 68 88 110 97 82 29 10 94 124 142 149 153 158 155 150 153 156 159 158 158 157 152 152 153 155 154 153 157 159 162 172 179 191 197 190 175 184 224 233
17 344 165 162 239 276 21 342 26 18 33 47 337 110 81 46 11 116 114 126 150 153 160 162 168 172 160 155 159 159 160 160 158 160 160 157 161 165 165 167 177 187 189 198 204 199 207 217 238
109 73 158 232 221 219 12 32 349 357 36 323 344 76 108 31 19 122 117 127 149 163 173 174 174 178 187 173 164 161 163 162 159 163 164 165 165 172 178 184 193 200 204 211 214 218 218 222 230
224 123 217 227 196 149 42 18 44 321 320 33 66 95 10 29 125 138 140 150 162 179 189 188 186 186 179 186 174 165 165 162 159 169 164 171 202 200 199 200 208 227 224 226 230 227 223 225 229
70 232 214 246 237 111 55 272 313 264 350 323 188 132 42 76 164 177 178 181 195 198 200 203 194 188 179 187 185 183 173 182 181 183 191 204 202 220 252 250 232 242 254 255 248 246 245 239 250
135 198 214 212 235 258 295 248 210 220 260 228 254 312 75 206 193 206 188 184 202 210 208 203 198 191 186 183 170 172 196 177 182 182 184 204 211 226 241 252 245 250 229 256 241 248 249 260 261
206 190 203 240 283 264 236 225 214 213 258 10 235 285 298 269 226 218 208 196 206 219 224 206 199 190 189 176 187 179 178 190 191 191 187 195 204 213 247 254 250 242 254 260 255 259 272 275 268
202 276 193 351 270 243 276 233 245 232 342 315 311 296 288 276 267 236 228 227 234 236 220 193 186 187 186 185 185 189 192 201 198 195 197 204 213 223 239 254 262 257 257 248 248 254 255 262 271
53 282 310 8 282 277 258 255 218 73 350 350 6 333 334 330 298 247 255 267 259 268 249 181 182 183 184 186 189 195 198 194 203 204 208 208 222 231 248 252 251 253 256 262 266 265 265 261 263
315 294 304 14 355 53 229 228 228 44 9 337 317 334 335 341 303 277 258 246 255 252 230 192 185 183 188 183 180 186 202 183 198 210 219 234 242 258 282 289 288 292 280 277 262 259 261 261 262
111 215 232 34 12 101 239 185 173 20 335 309 315 318 314 318 315 308 305 266 245 245 214 181 188 179 176 176 180 172 168 177 197 204 214 225 241 250 264 283 290 297 285 282 274 265 251 254 258
52 224 208 190 48 331 311 287 122 357 340 316 320 316 326 317 313 335 321 300 262 245 221 188 169 165 154 148 152 151 146 153 155 166 154 154 192 219 254 268 291 297 291 282 274 270 261 259 259
162 161 141 309 14 330 282 272 321 351 334 322 320 321 323 327 341 338 332 357 87 91 101 105 109 123 127 121 116 114 126 126 122 116 109 106 82 52 309 301 300 300 294 287 283 278 278 268 267
117 109 359 265 347 321 298 284 312 329 320 347 356 352 43 44 27 38 43 72 92 84 96 91 99 95 111 118 118 120 110 96 95 83 68 58 26 4 296 291 292 295 294 293 289 286 280 269 264
74 15 338 260 291 306 319 301 316 357 12 351 18 80 88 93 71 60 63 68 74 83 82 81 79 76 73 77 70 59 67 63 56 36 4 356 330 309 305 310 307 302 300 294 290 286 280 273 267
88 280 227 295 312 220 305 260 207 111 74 75 71 78 78 81 87 75 69 72 78 75 80 80 75 71 68 73 88 91 98 115 116 43 289 310 299 309 309 303 303 302 302 301 291 272 272 278 271
307 187 276 305 320 315 352 292 232 199 148 115 102 94 91 91 96 91 91 82 82 86 89 85 79 74 66 67 76 75 67 37 13 311 319 310 324 334 330 318 310 303 300 295 291 290 272 261 267
54 7 355 325 292 298 182 251 107 194 214 184 163 143 131 118 117 108 103 101 99 102 98 98 95 84 75 72 71 78 78 42 333 321 323 327 330 327 321 315 310 300 294 292 292 294 290 265 266
86 243 66 102 216 247 21 274 266 204 228 200 194 183 165 151 136 121 111 116 105 105 108 111 107 97 90 82 76 75 72 4 326 328 316 317 315 312 311 311 304 299 292 285 288 291 288 285 276
9 331 303 247 220 335 158 262 266 265 262 233 202 190 183 185 177 165 160 149 123 102 87 91 74 81 75 75 70 54 29 333 308 315 316 311 307 306 304 306 300 296 296 294 287 278 280 276 273
8 316 299 294 286 312 166 247 273 330 304 251 234 203 197 207 212 245 245 233 229 246 338 357 84 83 33 27 307 287 287 297 303 304 302 296 297 296 300 294 293 291 290 291 284 275 271 274 271
84 262 13 278 234 264 253 269 265 308 251 197 203 205 208 207 255 254 241 237 245 258 261 248 227 226 243 264 255 252 254 272 292 292 293 297 296 294 293 297 291 293 286 284 282 274 277 280 277
332 123 237 206 277 270 242 272 254 355 347 291 265 246 226 216 305 288 260 244 237 263 276 251 239 268 285 283 278 276 277 279 292 296 300 302 301 297 296 296 293 293 285 283 283 277 277 283 282
280 226 119 296 245 272 297 260 145 323 3 1 346 321 302 295 307 310 282 245 256 268 275 260 259 277 288 303 301 285 281 295 300 302 306 306 304 296 293 294 294 290 285 289 281 275 280 289 291
255 268 232 209 208 236 293 258 274 281 30 333 323 324 321 308 298 307 285 249 266 273 270 261 259 275 300 306 309 295 286 300 298 303 307 306 304 297 292 292 294 289 289 281 277 278 285 292 296